CDT,Max TemperatureF,Mean TemperatureF,Min TemperatureF,Max Dew PointF,MeanDew PointF,Min DewpointF,Max Humidity, Mean Humidity, Min Humidity, Max Sea Level PressureIn, Mean Sea Level PressureIn, Min Sea Level PressureIn, Max VisibilityMiles, Mean VisibilityMiles, Min VisibilityMiles, Max Wind SpeedMPH, Mean Wind SpeedMPH, Max Gust SpeedMPH,PrecipitationIn, CloudCover, Events, WindDirDegrees
2013-10-1,72,60,47,51,41,32,72,49,25,29.92,29.71,29.55,10,10,10,29,14,37,0.00,1,,252
2013-10-2,74,59,43,50,39,29,89,54,19,30.05,30.01,29.95,10,10,5,25,7,33,0.22,3,Rain,254
2013-10-3,57,54,51,50,49,47,96,87,77,30.06,29.99,29.95,10,10,4,20,12,25,0.19,8,Rain,73
2013-10-4,55,52,49,47,45,39,83,77,71,30.14,30.09,30.03,10,10,6,31,19,41,0.01,8,Rain,72
2013-10-5,49,48,47,46,45,45,93,90,86,30.05,29.91,29.76,10,3,1,33,24,46,1.23,8,Rain,76
2013-10-6,53,48,42,46,45,40,93,85,77,29.80,29.74,29.68,10,6,1,21,10,26,0.11,7,Rain,1
2013-10-7,62,52,41,43,38,35,89,64,39,29.99,29.90,29.79,10,10,10,16,5,21,0.00,1,,304
2013-10-8,71,58,44,46,41,35,71,55,39,29.99,29.88,29.78,10,10,10,21,12,28,0.00,0,,173
2013-10-9,73,65,56,50,47,44,69,57,44,30.06,29.98,29.88,10,10,10,20,10,28,0.00,0,,212
2013-10-10,69,60,50,48,46,44,77,62,47,30.06,30.01,29.95,10,10,10,15,8,20,0.00,1,,135
2013-10-11,69,61,52,54,50,45,77,65,53,29.96,29.83,29.64,10,10,9,24,14,32,0.03,3,Rain-Thunderstorm,122
2013-10-12,66,57,47,55,44,41,86,74,61,30.08,29.83,29.63,10,9,3,26,16,36,0.01,8,Rain,235
2013-10-13,57,47,36,43,35,28,86,61,35,30.43,30.31,30.06,10,10,10,18,6,30,0.00,3,,291
2013-10-14,51,44,36,41,36,30,85,70,54,30.45,30.35,30.17,10,10,10,22,8,29,0.03,6,Rain,91
2013-10-15,48,46,43,45,43,39,93,82,71,30.11,29.88,29.76,10,4,1,28,16,35,1.31,8,Rain,59
2013-10-16,55,46,37,40,35,30,86,64,41,29.94,29.89,29.84,10,9,4,16,7,22,T,5,Rain,318
2013-10-17,48,42,36,45,40,30,93,85,76,29.85,29.80,29.76,10,8,2,16,6,22,0.27,7,Rain,332
2013-10-18,50,44,37,36,32,26,85,65,45,29.94,29.87,29.81,10,10,9,21,8,25,0.01,6,Rain,297
2013-10-19,44,38,32,36,32,27,89,76,62,29.79,29.70,29.64,10,8,2,14,6,18,0.05,6,Rain-Snow,287
2013-10-20,38,34,29,34,32,26,96,89,82,29.80,29.74,29.67,10,5,1,17,5,22,0.23,7,Rain-Snow,45
2013-10-21,35,33,30,30,26,21,89,79,69,29.91,29.80,29.75,10,7,1,22,14,31,0.02,8,Snow,290
2013-10-22,36,31,25,30,26,19,92,76,59,30.03,29.96,29.85,10,10,7,13,7,17,T,6,Snow,314
2013-10-23,37,33,28,27,24,20,85,67,48,30.06,30.00,29.90,10,10,9,17,10,23,T,7,Snow,307
2013-10-24,42,36,30,29,26,24,78,65,51,30.27,30.14,30.00,10,10,10,18,10,25,T,6,Snow,310
2013-10-25,50,38,25,37,28,22,85,67,49,30.27,29.99,29.68,10,10,9,30,13,40,T,4,Rain,249
2013-10-26,44,39,34,34,30,25,76,64,51,30.06,29.93,29.72,10,10,8,21,11,30,0.01,7,Rain,309
2013-10-27,49,39,29,29,26,20,75,61,46,30.28,29.96,29.78,10,10,10,17,10,24,0.00,4,,310
2013-10-28,36,29,21,22,18,12,84,68,52,30.55,30.46,30.30,10,10,9,14,6,18,0.00,5,,49
2013-10-29,36,29,21,31,26,16,89,73,56,30.51,30.30,30.14,10,6,1,14,2,16,0.01,7,Snow,167
2013-10-30,44,40,35,43,37,32,96,91,85,30.16,29.93,29.69,9,2,0,14,7,18,0.06,8,Fog-Rain,106
2013-10-31,46,43,40,43,41,37,96,93,89,29.67,29.45,29.32,10,2,0,13,5,18,0.13,8,Fog-Rain,340